Location: Chacón
(10.5789°N, 66.9317°W)
Time: 21:42:14
(UTC+00:00)

BREEZE-M DEB (TANK) - Pass Details

Date: 14 August 2024
Orbit: 331 x 16054 km, 49.4° (Epoch: 16 September)

Event Time Altitude Azimuth Distance (km) Brightness Sun altitude
Exits shadow 08:22:42 - 358° (N) 2,273 5.7 -27.8°
Reaches altitude 10° 08:24:42 10° 24° (NNE) 1,756 5.4 -27.3°
Maximum altitude 08:27:10 17° 68° (ENE) 1,875 5.9 -26.8°
Drops below altitude 10° 08:31:32 10° 106° (ESE) 3,414 7.0 -25.8°
Sets 08:38:32 0° 123° (ESE) 6,341 8.2 -24.2°
